DateTimeUTC,F1_A11,F1_S11,BsB_S11,BsG_S11,BsR_S11,BbsB_S11,BbsG_S11,BbsR_S11,BaB_A11,BaG_A11,BaR_A11,Tu_S11,T_S11,Uu_S11,U_S11,P_S11,T1_A11
2021-01-09T00:00:00Z,00000200,21000000,,,,,,,0000.08,0000.06,-000.22,14.0,21.1,,00.0,0640.5,30.7
2021-01-09T00:01:00Z,00000200,21000000,,,,,,,-000.57,-000.12,-000.01,14.0,21.1,,00.0,0640.5,30.7
2021-01-09T00:02:00Z,00000200,21000000,,,,,,,0000.35,-000.06,0000.07,14.0,21.1,,00.0,0640.5,30.7
2021-01-09T00:03:00Z,00000200,61000000,,,,,,,-000.04,-000.05,0000.13,14.0,21.2,,00.0,0640.5,30.6
2021-01-09T00:04:00Z,00000200,41000000,-000.53,0000.29,0000.26,0000.25,0000.29,0000.16,0000.40,-000.03,-000.14,14.2,21.0,,00.0,0641.3,30.6
2021-01-09T00:05:00Z,00000200,01000000,0000.04,0000.34,0000.15,-000.25,-000.01,0000.05,0000.16,0000.67,0000.21,14.3,20.9,,00.0,0641.3,30.6
2021-01-09T00:06:00Z,00000200,01000000,0000.44,0000.20,0000.34,0000.30,0000.06,-000.03,-000.07,-000.33,0000.14,14.3,20.9,,00.0,0641.3,30.6
2021-01-09T00:07:00Z,00000200,01000000,0000.42,0000.31,0000.09,0000.14,0000.18,-000.02,0000.34,0000.55,0000.08,14.3,20.9,,00.0,0641.4,30.6
2021-01-09T00:08:00Z,00000200,01000000,-000.33,0000.37,0000.22,0000.66,0000.30,-000.04,0000.13,-000.08,0000.15,14.3,20.9,,00.0,0641.3,30.6
2021-01-09T00:09:00Z,00000200,01000000,0000.11,0000.12,0000.34,0000.46,0000.25,-000.08,0000.27,0000.58,-000.06,14.3,20.9,,00.0,0641.3,30.6
2021-01-09T00:10:00Z,00000200,01000000,0000.30,0000.18,0000.21,-000.28,0000.08,-000.05,-000.30,-000.12,0000.17,14.4,20.9,,00.0,0641.3,30.6
2021-01-09T00:11:00Z,00000200,01000000,0000.27,0000.40,0000.04,0000.07,0000.06,0000.22,0000.29,-000.03,-000.05,14.4,20.9,,00.0,0641.3,30.6
2021-01-09T00:12:00Z,00000200,01000000,0000.33,0000.46,0000.11,-000.19,0000.02,-000.02,0000.12,-000.05,0000.12,14.4,20.9,,00.0,0641.3,30.6
2021-01-09T00:13:00Z,00000200,01000000,0000.64,0000.41,0000.32,-000.23,0000.40,-000.02,0000.20,0000.55,-000.03,14.5,20.9,,00.0,0641.3,30.6
2021-01-09T00:14:00Z,00000200,01000000,0000.21,0000.36,0000.27,0000.25,-000.10,-000.04,0000.19,-000.18,0000.18,14.5,21.0,,00.0,0641.3,30.7
2021-01-09T00:15:00Z,00000200,01000000,0001.16,0000.25,0000.27,0000.23,0000.08,0000.08,0000.15,0000.45,0000.07,14.5,21.0,,00.0,0641.3,30.7
2021-01-09T00:16:00Z,00000200,01000000,0000.60,0000.33,0000.22,0000.10,-000.18,-000.08,0000.22,0000.12,0000.28,14.5,21.0,,00.0,0641.3,30.7
2021-01-09T00:17:00Z,00000200,01000000,0000.32,0000.22,0000.25,0000.18,-000.00,0000.21,0000.16,-000.11,0000.00,14.5,21.0,,00.0,0641.4,30.7
2021-01-09T00:18:00Z,00000200,01000000,0000.70,0000.21,0000.13,0000.01,0000.02,0000.11,-000.15,-000.32,0000.26,14.6,21.0,,00.0,0641.4,30.7
2021-01-09T00:19:00Z,00000200,01000000,0000.40,0000.34,0000.26,0000.28,0000.19,-000.26,-000.41,0000.14,-000.47,14.5,21.0,,00.0,0641.4,30.6
2021-01-09T00:20:00Z,00000200,01000000,0000.79,0000.16,0000.19,0000.09,0000.12,0000.02,0000.66,0000.16,0000.14,14.5,21.0,,00.0,0641.4,30.6
2021-01-09T00:21:00Z,00000200,01000000,0000.27,0000.03,0000.15,0000.59,0000.03,-000.02,-000.10,0000.28,-000.29,14.5,21.0,,00.0,0641.4,30.6
2021-01-09T00:22:00Z,00000200,01000000,-000.14,0000.09,0000.26,-000.15,-000.14,0000.08,-000.18,0000.12,0000.38,14.5,21.0,,00.0,0641.5,30.6
2021-01-09T00:23:00Z,00000200,01000000,0000.18,0000.38,0000.24,-000.18,0000.09,0000.00,0000.38,-000.10,-000.05,14.5,21.0,,00.0,0641.5,30.6
2021-01-09T00:24:00Z,00000200,01000000,0000.13,0000.10,0000.20,-000.17,0000.01,0000.32,-000.13,0000.16,-000.09,14.6,21.0,,00.0,0641.5,30.6
2021-01-09T00:25:00Z,00000200,01000000,0000.06,0000.05,0000.42,-000.41,0000.11,0000.01,0000.27,-000.11,0000.18,14.6,21.0,,00.0,0641.5,30.6
2021-01-09T00:26:00Z,00000200,01000000,0000.27,0000.00,0000.18,-000.13,-000.17,-000.10,-000.25,0000.15,0000.17,14.6,21.0,,00.0,0641.6,30.6
2021-01-09T00:27:00Z,00000200,01000000,0001.24,0000.12,0000.14,0000.12,0000.05,-000.12,0000.38,0000.04,0000.18,14.6,21.0,,00.0,0641.6,30.6
2021-01-09T00:28:00Z,00000200,01000000,0000.57,0000.24,0000.05,0000.11,0000.06,-000.02,-000.07,0000.19,-000.00,14.6,21.0,,00.0,0641.5,30.7
2021-01-09T00:29:00Z,00000200,01000000,0000.95,0000.28,0000.24,0000.04,0000.23,-000.06,0000.50,0000.54,-000.12,14.7,21.0,,00.0,0641.6,30.7
2021-01-09T00:30:00Z,00000200,01000000,0000.45,0000.20,0000.05,0000.08,0000.12,-000.25,-000.26,-000.58,0000.06,14.7,21.0,,00.0,0641.6,30.7
2021-01-09T00:31:00Z,00000200,01000000,0000.47,0000.20,0000.34,-000.10,0000.24,0000.15,-000.04,-000.27,-000.06,14.7,21.1,,00.0,0641.6,30.7
2021-01-09T00:32:00Z,00000200,01000000,0000.42,0000.31,0000.32,0000.89,0000.33,0000.15,0000.38,0000.19,0000.33,14.7,21.1,,00.0,0641.7,30.7
2021-01-09T00:33:00Z,00000200,01000000,0000.38,0000.23,0000.39,-000.00,0000.13,-000.02,-000.35,0000.76,-000.33,14.7,21.1,,00.0,0641.7,30.7
2021-01-09T00:34:00Z,00000200,01000000,0000.47,-000.18,-000.09,0000.01,0000.10,-000.17,0000.17,-000.68,-000.05,14.7,21.1,,00.0,0641.8,30.7
2021-01-09T00:35:00Z,00000200,01000000,0000.92,0000.51,0000.22,0000.26,0000.53,-000.10,-000.00,0000.13,0000.12,14.7,21.1,,00.0,0641.8,30.6
2021-01-09T00:36:00Z,00000200,01000000,0000.18,0000.22,0000.25,0000.37,-000.05,0000.10,0000.03,-000.06,0000.29,14.7,21.0,,00.0,0641.8,30.6
2021-01-09T00:37:00Z,00000200,01000000,-000.06,-000.09,0000.34,0000.49,-000.10,-000.10,0000.29,0000.22,0000.08,14.7,21.0,,00.0,0641.8,30.6
2021-01-09T00:38:00Z,00000200,01000000,0000.29,0000.18,0000.16,0000.29,0000.07,0000.16,-000.13,0000.28,0000.11,14.7,21.1,,00.0,0641.8,30.6
2021-01-09T00:39:00Z,00000200,01000000,0000.24,0000.12,0000.17,0000.16,-000.12,0000.03,0000.29,0000.09,-000.08,14.7,21.1,,00.0,0641.8,30.6
2021-01-09T00:40:00Z,00000200,01000000,0001.28,0000.22,0000.24,0000.54,0000.07,-000.04,0000.06,-000.12,0000.16,14.7,21.1,,00.0,0641.8,30.6
2021-01-09T00:41:00Z,00000200,01000000,0000.15,0000.31,0000.13,-000.06,0000.17,0000.04,-000.23,-000.07,0000.11,14.7,21.1,,00.0,0641.8,30.6
2021-01-09T00:42:00Z,00000200,01000000,0000.38,0000.17,0000.26,0000.01,0000.05,-000.08,0000.64,0000.57,-000.04,14.8,21.1,,00.0,0641.8,30.6
2021-01-09T00:43:00Z,00000200,01000000,0000.77,0000.12,0000.21,0000.02,0000.07,-000.09,-000.13,-000.22,-000.02,14.8,21.1,,00.0,0641.7,30.7
2021-01-09T00:44:00Z,00000200,01000000,0000.44,0000.13,0000.30,-000.35,0000.08,-000.09,-000.06,0000.15,-000.11,14.8,21.1,,00.0,0641.7,30.7
2021-01-09T00:45:00Z,00000200,01000000,0000.78,0000.16,0000.36,0000.09,0000.15,0000.10,0000.37,-000.25,0000.07,14.8,21.1,,00.0,0641.7,30.7
2021-01-09T00:46:00Z,00000200,01000000,0000.50,0000.44,0000.05,0000.40,0000.19,-000.21,-000.08,0000.42,0000.12,14.8,21.2,,00.0,0641.7,30.7
2021-01-09T00:47:00Z,00000200,01000000,-000.12,0000.19,0000.15,0000.24,0000.27,0000.01,0000.24,0000.28,0000.26,14.9,21.2,,00.0,0641.7,30.7
2021-01-09T00:48:00Z,00000200,01000000,0000.49,0000.79,0000.10,0000.32,0000.11,0000.11,0000.29,0000.21,0000.06,14.9,21.2,,00.0,0641.7,30.7
2021-01-09T00:49:00Z,00000200,01000000,0000.37,0000.28,0000.05,0000.25,0000.02,0000.29,0000.05,-000.14,-000.03,14.9,21.2,,00.0,0641.7,30.7
2021-01-09T00:50:00Z,00000200,01000000,0000.89,0000.10,0000.17,-000.01,0000.14,0000.06,-000.31,-000.14,0000.08,14.8,21.1,,00.0,0641.7,30.6
2021-01-09T00:51:00Z,00000200,01000000,0000.87,0000.16,0000.51,-000.02,0000.16,-000.07,0000.35,0000.25,-000.31,14.7,21.1,,00.0,0641.6,30.6
2021-01-09T00:52:00Z,00000200,01000000,-000.18,0000.30,-000.17,-000.30,0000.49,-000.34,-000.15,0000.27,0000.43,14.7,21.1,,00.0,0641.6,30.6
2021-01-09T00:53:00Z,00000200,01000000,0000.88,0000.54,0000.32,-000.01,0000.02,-000.18,0000.35,0000.19,0000.21,14.7,21.1,,00.0,0641.6,30.6
2021-01-09T00:54:00Z,00000200,01000000,0000.11,0000.20,0000.46,0000.26,-000.29,0000.20,0000.36,-000.18,0000.04,14.7,21.1,,00.0,0641.6,30.6
2021-01-09T00:55:00Z,00000200,01000000,0000.79,0000.31,0000.27,-000.15,-000.03,-000.02,-000.22,0000.43,-000.10,14.8,21.1,,00.0,0641.6,30.6
2021-01-09T00:56:00Z,00000200,01000000,-000.17,0000.35,0000.08,0000.42,-000.01,-000.14,0000.27,0000.30,0000.38,14.8,21.2,,00.0,0641.6,30.7
2021-01-09T00:57:00Z,00000200,41000000,,,,,,,0000.37,0000.27,-000.18,14.8,21.2,,00.0,0641.5,30.7
2021-01-09T00:58:00Z,00000200,61000000,,,,,,,-000.22,-000.89,0000.23,14.4,21.4,,00.0,0640.6,30.7
2021-01-09T00:59:00Z,00000200,21000000,,,,,,,-000.34,0000.44,-000.15,14.4,21.5,,00.0,0640.6,30.7
